Location: Saint Louis
(38.6272°N, 90.1978°W)
Time: 14:16:36
(UTC-05:00)

ISS - Pass Details

Date: 31 January 2013
Orbit: 401 x 404 km, 51.6° (Epoch: 23 July)

Event Time Altitude Azimuth Distance (km) Brightness Sun altitude
Exits shadow 05:38:02 30° 344° (NNW) 752 -2.2 -17.6°
Maximum altitude 05:39:09 43° 34° (NE) 578 -2.4 -17.4°
Drops below altitude 10° 05:42:19 10° 108° (ESE) 1,464 0.8 -16.8°
Sets 05:44:27 0° 115° (ESE) 2,324 2.0 -16.4°
